{"data":{"norad_id":62312,"intl_designator":"2024-239M","name":"STARLINK-32698","alt_names":[],"object_type":"PAYLOAD","status":"ACTIVE","operator":null,"country":"US","launch_date":"2024-12-13","launch_site_code":"AFWTR","launch_vehicle":null,"mission":null,"orbit_class":"UNKNOWN","rcs_meters":null,"size_class":null,"mass_kg":null,"dimensions":null,"purposes":["comms"],"wikipedia_slug":null,"has_3d_model":false,"image_url":null,"decayed_at":null,"tle_current":{"epoch":"2026-05-24T20:18:32.889600Z","epoch_age_seconds":81656,"freshness":"FRESH","line1":"1 62312U 24239M   26144.84621400  .00026330  00000+0  78709-3 0  9993","line2":"2 62312  53.1600 200.1912 0000774  97.7064 262.4027 15.34423448 81041","mean_motion":15.34423448,"eccentricity":7.74e-5,"inclination_deg":53.16,"raan_deg":200.1912,"arg_perigee_deg":97.7064,"mean_anomaly_deg":262.4027,"bstar":0.00078709,"rev_number":8104,"period_min":93.846323964674,"perigee_km":462.10407305669,"apogee_km":463.16302433763,"semimajor_km":6840.7705486972,"source":"CELESTRAK","updated_at":"2026-05-25T13:38:19.649398Z"}}}